Location: Rowland
(34.5359°N, 79.2929°W)
Time: 19:09:27
(UTC+00:00)

Transit 2A Rocket - Pass Details

Date: 08 October 2022
Orbit: 589 x 911 km, 66.7° (Epoch: 03 December)

Event Time Altitude Azimuth Distance (km) Brightness Sun altitude
Rises 10:12:19 0° 238° (WSW) 2,837 - -14.2°
Reaches altitude 10° 10:14:59 10° 254° (WSW) 1,919 - -13.6°
Exits shadow 10:17:12 20° 283° (WNW) 1,395 5.8 -13.2°
Maximum altitude 10:18:19 22° 305° (NW) 1,314 5.8 -12.9°
Drops below altitude 10° 10:21:39 10° 357° (N) 1,927 7.1 -12.2°
Sets 10:24:21 0° 13° (NNE) 2,852 8.1 -11.7°
